Details for All Nippon Cargo at RJBB




Go Back


Latest METAR
Local Time

RJBB 150500Z 17004KT 140V200 9999 FEW010 FEW025CB BKN140 BKN/// 30/25 Q1012 NOSIG
15/08/2018, 14:19:55

Description
Results
All Nippon Cargo Logo
Number of Pilots based at RJBB
0 Pilots Based here
Number of All Nippon Cargo Flights Departed from RJBB
0 Flights Departed
Number of All Nippon Cargo Flights Arrived at RJBB
0 Flights Arrived
Number of All Nippon Cargo Schedules Departing from RJBB
5 Schedules
Number of All Nippon Cargo Schedules Arriving at RJBB
6 Schedules
Number of All Nippon Cargo Schedules Departing from RJBB availible today
4 Schedules Today
Number of All Nippon Cargo Schedules Arriving at RJBB availible today
4 Schedules Today
Average Landing Rate at RJBB
-154 fpm
All Nippon Cargo Average Landing Rate at RJBB
0 fpm
Total Fuel Purchased at RJBB by All Nippon Cargo
0.00 kgs / 0.00 lbs

Pilots Based at RJBB


Pilot ID
Pilot Name
Pilot Rank
No. of Flights
No. of Flying Hours
There are no pilots assigned to this hub!   Will you be the first?
Content